Location: Unspecified
(43.4680°N, 87.1740°E)
Time: 19:20:04
(UTC+00:00)

NOSS 0 Rocket - Pass Details

Date: 17 January 2020
Orbit: 935 x 955 km, 70.0° (Epoch: 16 February)

Event Time Altitude Azimuth Distance (km) Brightness Sun altitude
Rises 12:52:31 0° 333° (NNW) 3,637 7.2 -19.7°
Reaches altitude 10° 12:55:04 10° 335° (NNW) 2,686 6.5 -20.1°
Maximum altitude 13:01:20 83° 64° (ENE) 961 3.8 -21.2°
Drops below altitude 10° 13:07:31 10° 152° (SSE) 2,656 6.1 -22.3°
Sets 13:10:02 0° 153° (SSE) 3,594 6.8 -22.8°
